OE8NDR-11 Weather Reports


Display with metric or nautical units.
time (UTC)temp
F
wind
direction
speed
MPH
gust
MPH
rain 1hr
in
rain 24hr
in
rain mn
in
humidity
%
barometer
mb
20260905205027 74 123 0.0 2.0 0.00 0.00 0.00 72 1017.7
20260905204527 75 123 1.0 3.0 0.00 0.00 0.00 72 1017.8
20260905204027 75 70 1.0 1.0 0.00 0.00 0.00 72 1017.7
20260905203527 75 70 2.0 3.0 0.00 0.00 0.00 72 1017.6
20260905203027 75 86 2.0 3.0 0.00 0.00 0.00 72 1017.5
20260905202527 75 88 2.0 3.0 0.00 0.00 0.00 71 1017.6
20260905202027 75 88 3.0 4.0 0.00 0.00 0.00 72 1017.5
20260905201527 75 88 1.0 4.0 0.00 0.00 0.00 72 1017.4
20260905201027 75 50 0.0 2.0 0.00 0.00 0.00 71 1017.5
20260905200527 75 49 0.0 0.0 0.00 0.00 0.00 70 1017.6
20260905200027 76 49 1.0 2.0 0.00 0.00 0.00 70 1017.7
20260905195527 76 49 2.0 2.0 0.00 0.00 0.00 71 1017.7
20260905195027 76 49 2.0 3.0 0.00 0.00 0.00 71 1017.7
20260905194527 76 49 2.0 3.0 0.00 0.00 0.00 70 1017.7
20260905194027 76 51 2.0 3.0 0.00 0.00 0.00 70 1017.7
20260905193527 76 50 2.0 3.0 0.00 0.00 0.00 70 1017.7
20260905193027 76 51 2.0 3.0 0.00 0.00 0.00 70 1017.7
20260905192527 76 51 2.0 2.0 0.00 0.00 0.00 70 1017.6
20260905192027 76 51 2.0 3.0 0.00 0.00 0.00 69 1017.5
20260905191527 76 51 3.0 3.0 0.00 0.00 0.00 69 1017.6
20260905191027 76 51 3.0 4.0 0.00 0.00 0.00 68 1017.5
20260905190527 76 65 2.0 3.0 0.00 0.00 0.00 68 1017.5
20260905190027 76 68 1.0 3.0 0.00 0.00 0.00 68 1017.5
20260905185527 76 69 0.0 2.0 0.00 0.00 0.00 67 1017.3
20260905185027 77 69 0.0 0.0 0.00 0.00 0.00 67 1017.2
20260905184527 77 69 0.0 0.0 0.00 0.00 0.00 66 1017.3
20260905184028 77 69 1.0 0.0 0.00 0.00 0.00 65 1017.2
20260905183527 77 69 1.0 3.0 0.00 0.00 0.00 65 1017.3
20260905183027 77 52 1.0 2.0 0.00 0.00 0.00 64 1017.1
20260905182527 77 51 2.0 3.0 0.00 0.00 0.00 63 1017.1
20260905182027 78 51 3.0 5.0 0.00 0.00 0.00 63 1017.3
20260905181527 78 61 3.0 5.0 0.00 0.00 0.00 62 1017.1
20260905181027 78 78 3.0 4.0 0.00 0.00 0.00 60 1017.0
20260905180527 79 82 3.0 4.0 0.00 0.00 0.00 59 1016.8
20260905180027 79 69 3.0 4.0 0.00 0.00 0.00 59 1016.7
20260905175527 79 34 3.0 4.0 0.00 0.00 0.00 59 1016.9
20260905175027 80 56 3.0 4.0 0.00 0.00 0.00 59 1016.7
20260905174527 80 65 3.0 4.0 0.00 0.00 0.00 57 1016.6
20260905174027 81 89 4.0 6.0 0.00 0.00 0.00 56 1016.3
20260905173527 82 90 4.0 7.0 0.00 0.00 0.00 54 1016.2
20260905173027 82 90 4.0 6.0 0.00 0.00 0.00 52 1016.2
20260905172527 82 90 3.0 6.0 0.00 0.00 0.00 53 1016.2
20260905172027 83 92 3.0 6.0 0.00 0.00 0.00 52 1016.2
20260905171527 84 40 1.0 3.0 0.00 0.00 0.00 48 1016.2
20260905171027 85 19 1.0 4.0 0.00 0.00 0.00 46 1016.4
20260905170527 86 19 2.0 5.0 0.00 0.00 0.00 47 1016.1
20260905170028 86 19 2.0 5.0 0.00 0.00 0.00 46 1016.2
20260905165528 86 338 1.0 3.0 0.00 0.00 0.00 45 1015.9
20260905165028 87 333 1.0 3.0 0.00 0.00 0.00 45 1015.9
20260905164528 87 321 1.0 3.0 0.00 0.00 0.00 45 1015.9
20260905164028 87 161 1.0 0.0 0.00 0.00 0.00 44 1015.8
20260905163528 88 161 1.0 2.0 0.00 0.00 0.00 46 1015.8
20260905163028 88 200 1.0 4.0 0.00 0.00 0.00 45 1015.7
20260905162528 88 200 1.0 4.0 0.00 0.00 0.00 44 1015.7
20260905162028 88 9 1.0 2.0 0.00 0.00 0.00 43 1015.7
20260905161528 88 9 1.0 3.0 0.00 0.00 0.00 41 1015.9
20260905161028 88 5 1.0 3.0 0.00 0.00 0.00 43 1016.0
20260905160528 88 5 2.0 3.0 0.00 0.00 0.00 44 1016.0
20260905160028 88 5 2.0 3.0 0.00 0.00 0.00 43 1015.9
20260905155528 88 5 2.0 3.0 0.00 0.00 0.00 43 1015.8
20260905155028 89 5 3.0 4.0 0.00 0.00 0.00 43 1016.0
20260905154528 89 25 2.0 5.0 0.00 0.00 0.00 40 1016.0
20260905154028 89 61 2.0 4.0 0.00 0.00 0.00 41 1015.9
20260905153528 90 281 1.0 4.0 0.00 0.00 0.00 40 1015.9
20260905153028 89 313 2.0 2.0 0.00 0.00 0.00 39 1015.9
20260905152528 89 243 4.0 8.0 0.00 0.00 0.00 41 1015.8
20260905152028 90 286 4.0 7.0 0.00 0.00 0.00 39 1015.9
20260905151528 90 254 5.0 8.0 0.00 0.00 0.00 39 1015.9
20260905151028 90 297 5.0 9.0 0.00 0.00 0.00 39 1015.8
20260905150528 90 265 6.0 9.0 0.00 0.00 0.00 37 1015.8
20260905150028 91 257 6.0 12.0 0.00 0.00 0.00 38 1015.8
20260905145528 90 274 7.0 11.0 0.00 0.00 0.00 38 1015.9
20260905145028 91 250 7.0 10.0 0.00 0.00 0.00 38 1015.8
20260905144528 91 225 7.0 12.0 0.00 0.00 0.00 37 1015.8
20260905144028 91 180 8.0 11.0 0.00 0.00 0.00 37 1015.9
20260905143528 91 227 8.0 15.0 0.00 0.00 0.00 37 1016.0
20260905143028 91 217 6.0 12.0 0.00 0.00 0.00 37 1016.0
20260905142528 91 275 5.0 10.0 0.00 0.00 0.00 36 1016.1
20260905142028 91 211 5.0 11.0 0.00 0.00 0.00 35 1016.2
20260905141528 91 19 6.0 9.0 0.00 0.00 0.00 37 1016.2
20260905141028 91 236 7.0 12.0 0.00 0.00 0.00 37 1016.3
20260905140528 91 297 8.0 12.0 0.00 0.00 0.00 38 1016.3
20260905140028 90 293 9.0 12.0 0.00 0.00 0.00 36 1016.3
20260905135528 90 300 8.0 11.0 0.00 0.00 0.00 36 1016.3
20260905135028 91 265 6.0 11.0 0.00 0.00 0.00 36 1016.3
20260905134528 91 293 6.0 10.0 0.00 0.00 0.00 36 1016.3
20260905134028 91 269 8.0 11.0 0.00 0.00 0.00 36 1016.5
20260905133528 91 310 9.0 15.0 0.00 0.00 0.00 35 1016.4
20260905133028 91 263 9.0 13.0 0.00 0.00 0.00 35 1016.4
20260905132528 91 245 9.0 12.0 0.00 0.00 0.00 35 1016.5
20260905132028 90 273 9.0 13.0 0.00 0.00 0.00 36 1016.6
20260905131528 90 255 10.0 14.0 0.00 0.00 0.00 37 1016.6
20260905131028 90 265 11.0 15.0 0.00 0.00 0.00 37 1016.6
20260905125913 90 250 10.0 15.0 0.00 0.00 0.00 36 1016.8
20260905123749 91 273 11.0 15.0 0.00 0.00 0.00 38 1016.9
20260905123249 91 259 10.0 15.0 0.00 0.00 0.00 36 1016.9
20260905122749 91 242 8.0 13.0 0.00 0.00 0.00 37 1016.9
20260905122249 91 261 9.0 13.0 0.00 0.00 0.00 37 1017.0
20260905121749 91 236 10.0 15.0 0.00 0.00 0.00 35 1017.0
20260905121249 91 257 10.0 14.0 0.00 0.00 0.00 35 1017.0
20260905120749 91 241 10.0 13.0 0.00 0.00 0.00 37 1017.1
20260905120249 91 236 10.0 13.0 0.00 0.00 0.00 37 1017.2
20260905115749 91 235 9.0 14.0 0.00 0.00 0.00 37 1017.2
20260905115249 91 251 9.0 14.0 0.00 0.00 0.00 36 1017.3
20260905114749 91 242 9.0 13.0 0.00 0.00 0.00 35 1017.3
20260905114249 92 261 9.0 12.0 0.00 0.00 0.00 36 1017.2
20260905113749 92 250 7.0 14.0 0.00 0.00 0.00 36 1017.3
20260905113249 91 260 7.0 10.0 0.00 0.00 0.00 37 1017.2
20260905112749 91 271 8.0 11.0 0.00 0.00 0.00 36 1017.3
20260905112249 91 309 8.0 14.0 0.00 0.00 0.00 36 1017.3
20260905111749 91 302 7.0 12.0 0.00 0.00 0.00 35 1017.4
20260905111249 91 252 5.0 11.0 0.00 0.00 0.00 35 1017.3
20260905110749 91 244 6.0 9.0 0.00 0.00 0.00 33 1017.4
20260905110249 91 290 6.0 11.0 0.00 0.00 0.00 35 1017.3
20260905105749 91 285 6.0 10.0 0.00 0.00 0.00 35 1017.4
20260905105249 91 290 6.0 11.0 0.00 0.00 0.00 35 1017.3
20260905104749 91 288 5.0 10.0 0.00 0.00 0.00 38 1017.4
20260905104249 91 355 4.0 8.0 0.00 0.00 0.00 36 1017.4
20260905103749 91 270 3.0 8.0 0.00 0.00 0.00 36 1017.3
20260905103249 92 295 2.0 4.0 0.00 0.00 0.00 37 1017.4
20260905102749 92 321 2.0 5.0 0.00 0.00 0.00 41 1017.4
20260905102249 92 347 3.0 4.0 0.00 0.00 0.00 39 1017.5
20260905101749 92 191 2.0 5.0 0.00 0.00 0.00 35 1017.5
20260905101249 93 274 1.0 4.0 0.00 0.00 0.00 35 1017.7
20260905100749 93 100 0.0 3.0 0.00 0.00 0.00 36 1017.6
20260905100249 92 69 1.0 1.0 0.00 0.00 0.00 35 1017.7
20260905095749 91 69 1.0 3.0 0.00 0.00 0.00 38 1017.8
20260905095249 91 61 1.0 3.0 0.00 0.00 0.00 38 1017.9
20260905094749 90 321 2.0 2.0 0.00 0.00 0.00 37 1017.9
20260905094249 90 345 2.0 4.0 0.00 0.00 0.00 37 1017.9
20260905093749 90 46 1.0 3.0 0.00 0.00 0.00 37 1018.0
20260905093249 90 342 1.0 4.0 0.00 0.00 0.00 39 1018.1
20260905092749 89 37 1.0 3.0 0.00 0.00 0.00 37 1018.1
20260905092249 89 355 1.0 4.0 0.00 0.00 0.00 39 1018.1
20260905091749 89 333 2.0 2.0 0.00 0.00 0.00 42 1018.1
20260905091249 88 271 1.0 3.0 0.00 0.00 0.00 39 1018.1
20260905090749 88 355 1.0 3.0 0.00 0.00 0.00 39 1018.1
20260905090249 88 267 2.0 3.0 0.00 0.00 0.00 42 1018.2
20260905085749 87 265 2.0 7.0 0.00 0.00 0.00 41 1018.2
20260905085249 87 315 2.0 5.0 0.00 0.00 0.00 46 1018.3
20260905084749 87 319 2.0 4.0 0.00 0.00 0.00 45 1018.3
20260905084249 87 322 1.0 3.0 0.00 0.00 0.00 43 1018.4
20260905083749 87 344 2.0 4.0 0.00 0.00 0.00 46 1018.3
20260905083249 86 339 2.0 5.0 0.00 0.00 0.00 45 1018.3
20260905082749 86 347 3.0 4.0 0.00 0.00 0.00 44 1018.3
20260905082249 86 325 3.0 8.0 0.00 0.00 0.00 45 1018.2
20260905081749 86 333 3.0 5.0 0.00 0.00 0.00 43 1018.2
20260905081249 86 338 2.0 4.0 0.00 0.00 0.00 44 1018.3
20260905080749 85 340 2.0 5.0 0.00 0.00 0.00 45 1018.3
20260905080249 85 340 3.0 8.0 0.00 0.00 0.00 46 1018.3
20260905075749 85 40 2.0 8.0 0.00 0.00 0.00 43 1018.3
20260905075249 84 355 2.0 3.0 0.00 0.00 0.00 46 1018.2
20260905074749 84 314 2.0 4.0 0.00 0.00 0.00 48 1018.3
20260905074249 84 298 2.0 5.0 0.00 0.00 0.00 44 1018.2
20260905073749 83 343 2.0 4.0 0.00 0.00 0.00 45 1018.1
20260905073249 83 346 1.0 3.0 0.00 0.00 0.00 47 1018.2
20260905072749 82 333 2.0 3.0 0.00 0.00 0.00 47 1018.0
20260905072249 82 328 3.0 6.0 0.00 0.00 0.00 47 1017.9
20260905071749 82 349 2.0 5.0 0.00 0.00 0.00 47 1018.0
20260905071249 82 342 1.0 4.0 0.00 0.00 0.00 51 1018.0
20260905070749 81 348 0.0 1.0 0.00 0.00 0.00 50 1018.0
20260905070249 80 348 1.0 2.0 0.00 0.00 0.00 51 1018.0
20260905065749 79 348 1.0 3.0 0.00 0.00 0.00 51 1018.0
20260905065249 79 345 2.0 2.0 0.00 0.00 0.00 53 1018.0
20260905064749 78 303 3.0 6.0 0.00 0.00 0.00 55 1018.1
20260905064249 77 284 2.0 4.0 0.00 0.00 0.00 55 1018.0
20260905063749 77 279 2.0 4.0 0.00 0.00 0.00 55 1018.2
20260905063249 76 312 2.0 3.0 0.00 0.00 0.00 55 1018.1
20260905062749 76 314 1.0 3.0 0.00 0.00 0.00 55 1018.2
20260905062249 76 316 0.0 2.0 0.00 0.00 0.00 56 1018.2
20260905061749 76 316 0.0 0.0 0.00 0.00 0.00 56 1018.3
20260905061249 75 316 1.0 2.0 0.00 0.00 0.00 57 1018.3
20260905060749 75 316 1.0 3.0 0.00 0.00 0.00 56 1018.3
20260905060249 75 316 1.0 3.0 0.00 0.00 0.00 57 1018.3
20260905055749 74 315 1.0 3.0 0.00 0.00 0.00 56 1018.3
20260905055250 74 289 2.0 3.0 0.00 0.00 0.00 56 1018.3
20260905054753 74 284 2.0 3.0 0.00 0.00 0.00 55 1018.3
20260905054249 73 292 2.0 3.0 0.00 0.00 0.00 56 1018.3
20260905053749 73 294 2.0 3.0 0.00 0.00 0.00 57 1018.2
20260905053249 73 298 2.0 3.0 0.00 0.00 0.00 57 1018.3
20260905052749 73 346 1.0 3.0 0.00 0.00 0.00 57 1018.3
20260905052249 73 349 0.0 1.0 0.00 0.00 0.00 57 1018.3
20260905051749 72 349 0.0 0.0 0.00 0.00 0.00 57 1018.3
20260905051249 72 349 2.0 3.0 0.00 0.00 0.00 58 1018.3
20260905050749 72 349 2.0 4.0 0.00 0.00 0.00 57 1018.2
20260905050249 72 336 1.0 4.0 0.00 0.00 0.00 56 1018.3
20260905045749 72 317 1.0 2.0 0.00 0.00 0.00 57 1018.2
20260905045249 71 319 1.0 3.0 0.00 0.00 0.00 57 1018.1
20260905044749 71 334 1.0 2.0 0.00 0.00 0.00 57 1018.1
20260905044249 71 332 1.0 3.0 0.00 0.00 0.00 57 1018.0
20260905043749 70 330 1.0 2.0 0.00 0.00 0.00 58 1018.0
20260905043249 70 330 1.0 4.0 0.00 0.00 0.00 59 1018.0
20260905042749 70 5 1.0 4.0 0.00 0.00 0.00 59 1018.0
20260905042249 70 26 1.0 3.0 0.00 0.00 0.00 58 1017.9
20260905041749 70 14 1.0 3.0 0.00 0.00 0.00 58 1017.9
20260905041249 70 10 0.0 1.0 0.00 0.00 0.00 58 1017.8
20260905040749 70 10 1.0 2.0 0.00 0.00 0.00 58 1017.7
20260905040249 71 11 2.0 2.0 0.00 0.00 0.00 58 1017.7
20260905035749 71 11 1.0 3.0 0.00 0.00 0.00 57 1017.7
20260905035249 72 10 1.0 4.0 0.00 0.00 0.00 57 1017.6
20260905034749 72 335 2.0 3.0 0.00 0.00 0.00 56 1017.6
20260905034249 73 293 2.0 3.0 0.00 0.00 0.00 56 1017.6
20260905033749 73 292 2.0 4.0 0.00 0.00 0.00 56 1017.6
20260905033249 72 284 2.0 4.0 0.00 0.00 0.00 56 1017.5
20260905032750 72 288 2.0 3.0 0.00 0.00 0.00 57 1017.6
20260905032250 72 292 2.0 3.0 0.00 0.00 0.00 58 1017.5
20260905031750 72 296 2.0 3.0 0.00 0.00 0.00 56 1017.6
20260905031250 72 326 1.0 4.0 0.00 0.00 0.00 55 1017.6
20260905030749 72 19 1.0 1.0 0.00 0.00 0.00 55 1017.6
20260905030250 72 18 3.0 4.0 0.00 0.00 0.00 54 1017.6
20260905025750 73 17 2.0 5.0 0.00 0.00 0.00 54 1017.5
20260905025250 73 28 1.0 4.0 0.00 0.00 0.00 55 1017.5
20260905024750 73 327 0.0 2.0 0.00 0.00 0.00 56 1017.6
20260905024250 73 321 1.0 1.0 0.00 0.00 0.00 56 1017.6
20260905023750 73 321 2.0 3.0 0.00 0.00 0.00 56 1017.7
20260905023250 74 322 2.0 4.0 0.00 0.00 0.00 56 1017.6
20260905022750 75 301 2.0 3.0 0.00 0.00 0.00 54 1017.5
20260905022250 75 283 1.0 3.0 0.00 0.00 0.00 54 1017.5
20260905021750 75 259 1.0 1.0 0.00 0.00 0.00 54 1017.6
20260905021250 75 259 2.0 3.0 0.00 0.00 0.00 54 1017.7
20260905020750 74 245 3.0 4.0 0.00 0.00 0.00 55 1017.7
20260905020250 74 242 2.0 4.0 0.00 0.00 0.00 56 1017.7
20260905015750 75 295 1.0 3.0 0.00 0.00 0.00 56 1017.7
20260905015250 75 321 2.0 3.0 0.00 0.00 0.00 54 1017.6
20260905014750 75 296 3.0 3.0 0.00 0.00 0.00 54 1017.6
20260905014250 75 292 3.0 4.0 0.00 0.00 0.00 54 1017.6
20260905013750 75 288 3.0 6.0 0.00 0.00 0.00 54 1017.6
20260905013250 75 286 3.0 4.0 0.00 0.00 0.00 56 1017.7
20260905012750 74 298 3.0 4.0 0.00 0.00 0.00 57 1017.7
20260905012250 74 279 3.0 6.0 0.00 0.00 0.00 59 1017.7
20260905011750 74 267 3.0 4.0 0.00 0.00 0.00 60 1017.7
20260905011250 73 280 3.0 3.0 0.00 0.00 0.00 63 1017.7
20260905010750 74 281 3.0 4.0 0.00 0.00 0.00 62 1017.5
20260905010250 74 282 3.0 4.0 0.00 0.00 0.00 62 1017.6
20260905005750 73 286 2.0 3.0 0.00 0.00 0.00 63 1017.5
20260905005250 72 286 2.0 3.0 0.00 0.00 0.00 65 1017.6
20260905004750 72 301 2.0 3.0 0.00 0.00 0.00 66 1017.5
20260905003750 71 300 3.0 4.0 0.00 0.00 0.00 68 1017.5
20260905003304 71 290 3.0 6.0 0.00 0.00 0.00 71 1017.4
20260905002750 70 275 3.0 6.0 0.00 0.00 0.00 73 1017.4
20260905002250 70 272 3.0 4.0 0.00 0.00 0.00 73 1017.4
20260905001750 70 284 3.0 3.0 0.00 0.00 0.00 72 1017.3
20260905001250 71 284 3.0 4.0 0.00 0.00 0.00 71 1017.3
20260905000750 71 303 3.0 4.0 0.00 0.00 0.00 70 1017.3
20260905000250 71 311 4.0 5.0 0.00 0.00 0.00 71 1017.4
20260904235750 71 301 3.0 6.0 0.00 0.00 0.00 72 1017.4
20260904235250 71 257 3.0 4.0 0.00 0.00 0.00 71 1017.3
20260904234750 71 312 2.0 3.0 0.00 0.00 0.00 70 1017.4
20260904234250 71 313 2.0 3.0 0.00 0.00 0.00 70 1017.5
20260904233750 71 313 3.0 4.0 0.00 0.00 0.00 70 1017.3
20260904233250 71 309 3.0 4.0 0.00 0.00 0.00 73 1017.4
20260904232750 71 300 4.0 6.0 0.00 0.00 0.00 73 1017.5
20260904232250 72 285 2.0 7.0 0.00 0.00 0.00 71 1017.5
20260904231750 72 339 0.0 3.0 0.00 0.00 0.00 70 1017.5
20260904231250 73 11 0.0 0.0 0.00 0.00 0.00 70 1017.5
20260904230750 73 11 0.0 0.0 0.00 0.00 0.00 70 1017.6
20260904230250 72 11 0.0 1.0 0.00 0.00 0.00 70 1017.5
20260904225750 72 28 0.0 0.0 0.00 0.00 0.00 71 1017.5
20260904225250 72 67 0.0 0.0 0.00 0.00 0.00 70 1017.6
20260904224750 72 67 0.0 0.0 0.00 0.00 0.00 69 1017.6
20260904224250 72 67 0.0 0.0 0.00 0.00 0.00 68 1017.7
20260904223750 72 67 0.0 0.0 0.00 0.00 0.00 68 1017.7
20260904223250 72 67 0.0 0.0 0.00 0.00 0.00 67 1017.6
20260904222750 72 67 0.0 0.0 0.00 0.00 0.00 68 1017.7
20260904222250 73 67 0.0 0.0 0.00 0.00 0.00 68 1017.7
20260904221750 73 67 0.0 0.0 0.00 0.00 0.00 67 1017.7
20260904221250 73 67 0.0 0.0 0.00 0.00 0.00 67 1017.7
20260904220750 73 67 0.0 0.0 0.00 0.00 0.00 66 1017.7
20260904220250 74 67 0.0 0.0 0.00 0.00 0.00 66 1017.7
20260904215750 74 67 0.0 0.0 0.00 0.00 0.00 66 1017.7
20260904215250 73 67 0.0 0.0 0.00 0.00 0.00 67 1017.7
20260904214750 73 67 0.0 0.0 0.00 0.00 0.00 67 1017.6
20260904214250 74 77 0.0 0.0 0.00 0.00 0.00 65 1017.5
20260904213751 74 153 0.0 0.0 0.00 0.00 0.00 64 1017.6
20260904213250 75 178 0.0 0.0 0.00 0.00 0.00 64 1017.7
20260904212750 75 178 0.0 0.0 0.00 0.00 0.00 63 1017.7
20260904212250 75 187 0.0 0.0 0.00 0.00 0.00 64 1017.7
20260904211750 75 188 0.0 0.0 0.00 0.00 0.00 66 1017.6
20260904211250 75 200 0.0 0.0 0.00 0.00 0.00 66 1017.6
20260904210750 75 200 0.0 0.0 0.00 0.00 0.00 65 1017.6
20260904210250 75 275 0.0 0.0 0.00 0.00 0.00 65 1017.7
20260904205750 76 288 0.0 0.0 0.00 0.00 0.00 64 1017.6
20260904205250 76 288 0.0 0.0 0.00 0.00 0.00 64 1017.5